Theta_e
312 312 311 312 312 312 312 312 312 312 311 309 308 308 307 306 301 294 293 297 297 300 301 302 302 301 302 304 306 307 308 306 304 304 307 310 309 308 308 312 314 316 318 321 323 324 324 324 323 321 320 320 319 318 317 316 315 314 315 314 313 312 311 308 306 305 305 302 300 299 298 298 297 297
312 311 312 311 310 310 310 311 311 311 310 307 308 308 309 309 304 300 299 298 299 301 301 303 302 300 300 302 304 306 307 303 304 306 307 308 309 306 306 309 313 315 315 317 320 323 325 326 324 323 322 321 319 319 318 318 316 315 315 315 314 312 310 308 306 305 304 302 300 299 298 298 297 297
311 310 310 310 310 310 310 310 311 311 310 309 308 308 309 306 308 305 304 300 299 303 301 302 303 301 301 301 302 302 304 303 303 306 307 308 304 302 305 305 308 311 313 314 315 317 321 323 323 323 324 322 321 320 319 319 318 317 316 315 313 311 309 308 306 305 304 302 300 299 299 298 298 297
310 310 309 309 309 310 308 309 309 309 309 309 308 308 308 307 307 306 305 304 299 302 304 303 302 302 302 300 300 301 302 302 300 304 306 307 301 303 306 302 303 306 308 310 311 313 315 318 320 322 325 323 323 322 321 321 318 317 316 314 311 310 309 308 306 306 304 302 300 299 298 298 297 297
309 309 309 310 310 310 308 308 308 308 307 308 308 308 308 307 306 304 304 303 294 298 300 303 302 300 302 299 301 301 301 300 301 301 303 303 304 305 305 306 302 302 305 307 309 309 309 310 313 316 318 320 321 322 321 320 318 314 313 312 311 310 309 308 307 306 304 302 300 299 298 298 297 297
309 309 308 309 309 309 309 309 308 307 306 306 307 306 307 307 305 306 305 302 298 294 294 296 298 297 302 301 301 302 301 301 300 299 300 300 302 304 303 304 305 302 302 304 306 307 308 308 308 309 311 316 316 316 315 314 313 312 311 311 310 310 309 307 306 305 303 301 299 299 298 297 297 296
308 308 307 308 307 307 307 308 308 307 306 305 306 306 306 306 306 305 305 301 295 294 292 295 294 296 297 302 301 302 303 302 299 299 298 298 298 298 299 301 301 301 302 303 304 305 306 307 307 307 307 308 309 310 311 311 311 311 310 309 308 308 307 306 305 304 302 300 298 298 297 297 297 296
306 307 307 308 307 304 305 306 307 307 306 305 306 305 305 306 305 305 304 304 299 292 294 290 294 293 295 295 297 299 297 298 297 298 295 294 293 295 295 298 298 299 300 301 302 303 304 305 306 306 306 306 307 307 308 309 309 309 309 308 307 306 305 304 303 302 301 299 297 296 295 295 295 296
306 306 307 307 307 304 303 303 304 306 305 305 305 305 305 306 305 303 303 301 298 296 295 291 288 289 292 288 290 294 295 292 292 292 293 293 293 292 292 291 293 296 297 298 299 300 301 302 303 304 304 305 305 305 305 304 305 305 306 305 305 305 304 303 302 301 300 297 296 294 293 293 293 295
306 307 307 307 307 306 305 303 304 305 305 305 305 305 305 304 303 302 300 299 297 298 294 293 288 289 291 290 290 288 292 294 293 292 291 292 291 290 292 293 293 292 293 294 296 298 298 299 300 300 301 302 303 303 303 302 302 302 304 304 304 304 303 302 301 299 298 297 295 293 292 292 292 293
306 307 307 306 306 306 306 305 304 304 304 305 305 304 304 303 301 300 297 295 295 294 291 289 291 290 289 290 291 287 289 292 293 295 292 292 290 289 292 294 292 291 291 292 293 293 293 293 294 297 298 299 300 300 300 300 301 302 303 303 303 303 303 301 300 297 296 296 294 293 292 292 291 290
306 306 306 306 306 306 305 304 304 305 305 304 304 303 303 302 301 299 296 294 294 293 291 290 290 287 287 286 285 286 288 290 290 290 294 296 296 294 290 289 290 290 290 291 290 292 292 292 293 295 296 296 296 296 297 297 297 299 301 302 302 302 301 300 298 297 296 295 293 292 292 291 290 290
305 305 305 305 305 303 299 298 299 300 301 305 303 301 302 301 300 298 296 295 293 291 291 289 287 288 287 287 287 287 288 291 295 292 290 293 291 290 290 290 288 289 289 289 289 290 289 289 290 290 291 293 293 293 294 295 297 298 300 302 302 301 300 299 297 296 295 294 293 292 291 291 290 290
303 304 305 303 297 296 295 295 296 297 297 299 304 303 303 301 300 298 295 294 293 293 292 291 289 289 289 288 288 289 290 289 287 288 289 291 288 287 288 288 287 287 288 289 290 290 288 289 290 289 290 292 291 291 292 293 295 297 300 301 301 300 299 298 297 295 294 293 292 292 291 291 290 290
301 301 302 303 297 295 293 296 295 296 297 297 297 297 298 299 302 299 296 294 293 293 294 291 290 291 290 289 289 290 289 288 290 289 289 289 288 289 289 291 288 287 289 287 287 289 287 289 290 289 289 290 289 289 290 295 296 298 299 300 300 299 298 298 297 295 294 293 292 292 291 291 290 289
301 301 300 299 300 300 301 300 298 295 294 295 295 296 296 297 297 299 299 296 293 293 293 290 291 291 292 291 288 288 288 288 288 287 288 289 289 289 289 289 290 287 287 287 286 288 287 287 288 288 289 288 287 288 291 295 297 298 299 300 299 298 298 297 296 294 293 292 292 292 291 291 290 289
300 299 299 299 299 301 293 296 299 299 297 293 293 294 294 295 296 297 297 297 299 297 295 293 291 292 292 290 289 289 290 289 289 287 287 288 288 289 289 289 286 285 286 287 286 286 286 287 287 288 288 286 285 286 291 294 297 298 299 299 299 298 297 296 295 294 293 292 292 292 291 290 290 290
299 299 299 298 298 295 296 296 299 298 297 296 296 296 296 297 295 294 295 295 295 296 298 295 294 292 291 293 291 290 290 289 289 288 288 288 288 288 289 287 286 285 287 288 287 286 286 286 287 287 286 284 285 285 289 293 296 297 299 299 298 297 296 295 294 293 293 292 292 291 291 290 290 290
299 299 299 299 298 296 296 297 297 296 297 297 296 295 294 296 294 295 293 293 294 294 296 296 295 293 293 293 291 290 291 292 292 291 291 290 289 287 285 285 285 285 286 286 287 287 285 285 286 286 282 283 284 284 286 291 294 296 298 298 298 297 296 295 294 293 293 292 292 291 291 290 290 289
297 298 298 297 296 296 296 293 293 295 297 296 294 293 293 292 292 292 294 294 295 296 296 295 295 293 293 293 290 291 292 291 288 288 288 288 287 287 287 287 284 285 286 286 287 287 284 283 286 281 278 280 280 281 283 287 290 294 297 298 297 296 295 294 294 293 292 292 291 291 290 290 289 288
294 296 296 297 298 295 295 293 294 295 294 295 294 294 293 293 292 292 292 293 293 294 294 294 294 294 295 295 293 293 293 291 290 289 288 286 287 287 286 286 284 285 284 285 286 287 284 281 282 278 277 278 279 280 281 283 287 291 296 297 297 296 295 294 293 293 292 291 291 290 290 289 288 288
295 295 291 292 296 295 294 293 294 295 295 295 294 293 292 291 292 291 290 291 291 292 292 292 292 293 293 294 293 293 293 292 291 290 289 287 288 288 288 288 286 283 282 285 286 285 282 279 278 277 276 278 277 277 278 281 283 286 295 296 296 295 294 294 293 292 291 291 290 290 290 289 288 286
290 291 290 290 292 294 293 294 295 295 294 295 294 294 293 292 292 293 290 291 290 290 290 289 290 289 290 290 290 290 291 291 290 293 292 289 289 288 288 287 284 285 284 283 285 284 277 280 278 278 276 275 276 274 276 279 280 282 284 289 292 294 293 292 292 291 291 291 290 290 290 289 288 284
289 289 290 290 292 294 294 294 295 294 295 295 293 293 294 292 293 291 291 291 291 290 291 289 289 289 287 288 288 288 289 289 289 290 289 290 290 289 288 287 288 287 284 279 285 284 276 280 279 275 275 277 279 274 274 277 278 279 281 286 287 291 290 290 290 291 291 290 290 290 290 290 288 283
291 290 290 290 291 294 293 294 294 294 294 293 293 294 294 294 293 291 291 289 288 290 289 288 288 288 288 288 288 288 288 288 288 288 288 289 290 291 289 288 287 288 282 279 287 283 276 277 277 278 276 274 273 272 273 274 277 277 278 281 286 286 287 287 288 288 290 290 290 290 290 289 289 284
290 291 291 291 291 292 293 293 294 294 294 294 292 294 294 293 291 291 290 289 289 289 288 288 288 288 288 287 287 287 287 287 288 288 288 288 289 288 290 289 288 287 287 283 288 284 279 277 279 280 278 276 274 272 273 275 276 276 277 277 280 284 286 286 285 285 286 287 287 288 288 289 289 287
291 290 290 290 289 291 292 293 294 294 294 292 292 294 293 292 291 289 289 289 289 289 288 288 288 287 287 287 287 287 287 287 287 287 287 287 287 286 284 284 286 287 285 284 287 286 284 280 282 282 280 279 275 274 273 274 275 274 277 277 278 279 281 284 284 284 285 285 285 288 289 289 289 288
291 290 290 290 289 290 291 292 293 293 292 291 292 292 292 290 288 289 288 289 289 288 288 288 287 287 287 287 287 287 287 287 286 286 286 286 285 285 283 282 282 283 284 285 286 286 286 283 282 283 283 281 278 277 276 274 272 275 277 276 276 277 278 281 283 283 283 283 283 285 284 284 286 286
291 290 290 289 289 290 291 291 292 291 290 290 291 291 289 287 289 289 289 289 288 288 288 288 287 287 287 287 287 286 286 286 286 285 284 283 282 281 281 280 280 280 281 283 285 286 285 284 283 283 283 283 281 280 278 276 274 274 277 276 277 277 277 278 281 282 281 282 283 283 283 283 283 283
289 289 289 289 289 289 289 289 289 288 288 289 288 288 287 288 288 288 289 288 288 288 287 287 287 286 286 286 284 285 286 286 285 285 283 283 282 283 283 282 280 279 279 279 281 283 284 283 283 283 283 282 283 281 278 275 275 274 276 277 276 276 276 277 279 281 280 280 281 282 282 281 281 281
289 288 288 288 288 288 288 287 287 287 287 287 287 287 287 287 288 288 288 288 288 288 287 287 286 286 285 285 285 285 285 285 285 285 284 283 282 282 283 281 278 278 278 279 279 279 282 282 283 283 282 281 281 281 279 278 276 274 275 276 277 278 277 277 277 279 280 280 280 280 279 279 278 278
288 288 287 287 287 287 287 287 287 286 287 287 287 287 287 287 287 287 287 286 285 285 286 286 286 285 285 285 285 285 285 284 284 284 284 282 281 282 282 281 277 276 277 277 278 279 278 280 282 282 282 282 281 278 278 278 276 275 274 276 276 275 274 277 277 277 278 278 278 278 278 278 278 277
287 287 287 287 286 286 286 285 286 285 285 285 286 286 286 286 287 287 287 286 287 287 287 287 286 285 285 285 285 284 284 283 283 284 283 283 281 281 282 282 278 277 277 275 275 276 277 277 277 278 278 278 280 279 278 275 274 275 275 275 275 275 273 275 277 277 276 277 277 277 277 276 276 277
288 288 287 287 286 286 285 285 284 284 284 284 284 285 286 286 286 286 286 287 287 287 287 287 286 285 285 284 284 284 283 282 282 283 283 281 281 280 281 280 278 278 279 276 274 274 275 276 277 277 277 277 277 278 279 279 275 274 275 275 274 274 275 274 274 275 276 277 277 276 276 275 274 274
288 288 287 287 287 286 286 285 285 285 284 284 284 285 285 286 286 286 286 286 287 287 287 287 287 286 286 284 284 283 282 281 281 282 282 281 281 281 281 280 278 277 277 274 273 274 275 275 276 276 275 276 276 276 278 278 276 274 274 273 274 274 273 273 273 273 274 275 275 276 275 275 275 272
287 288 287 287 287 286 286 286 286 285 285 285 285 285 285 285 286 286 286 287 287 287 286 286 286 286 286 285 284 284 283 282 281 281 280 280 280 280 280 280 279 277 277 275 273 274 275 276 276 276 274 273 273 273 274 279 279 275 274 272 272 273 272 271 271 272 273 274 274 275 274 274 274 269
287 287 287 286 286 286 286 286 286 286 285 285 285 285 285 285 286 286 286 287 287 286 287 287 286 286 286 285 284 284 282 281 280 280 280 280 280 280 279 279 278 277 276 275 274 274 275 275 276 276 275 273 272 272 274 273 277 279 277 275 272 272 271 269 269 270 272 273 273 274 274 274 271 267
287 287 286 286 286 286 286 286 286 286 286 286 286 286 286 286 286 286 286 286 286 286 286 286 286 286 286 285 284 283 282 282 281 280 280 280 279 278 279 278 277 276 276 274 274 274 275 275 275 276 276 274 273 272 272 272 270 275 279 277 274 271 270 269 268 269 270 271 272 271 270 271 270 265
287 286 286 286 286 286 286 286 286 286 286 286 286 286 286 286 286 286 286 286 286 286 286 286 286 286 285 285 284 283 282 281 280 280 280 279 279 279 278 278 277 276 274 272 272 273 274 274 275 275 276 275 275 275 276 273 271 270 274 279 274 271 270 270 269 269 269 268 268 265 264 263 268 273
287 287 287 287 287 287 286 286 286 286 286 286 286 286 286 285 286 285 286 286 286 286 286 286 286 286 285 285 284 284 283 282 281 281 280 280 279 279 279 279 277 275 274 272 271 272 272 273 275 275 276 276 275 275 275 272 266 265 269 276 278 274 271 270 269 268 267 266 265 266 265 264 265 264
287 286 287 287 287 287 286 286 286 286 286 286 286 286 286 286 286 285 286 286 286 286 286 286 286 285 285 285 284 284 282 282 282 281 281 280 279 279 279 278 277 275 274 272 272 272 272 274 276 277 275 273 274 275 274 272 270 266 266 268 278 278 276 274 272 271 268 266 267 265 265 263 263 263
287 286 287 287 287 286 287 286 286 286 286 286 286 286 286 286 286 286 285 285 286 286 286 286 286 286 285 285 285 284 283 282 281 281 280 280 279 278 278 278 277 275 275 274 273 274 275 276 276 276 274 274 274 273 273 273 271 266 264 265 269 277 277 276 276 275 271 269 267 262 262 262 262 263
287 287 286 287 287 287 287 286 286 286 286 286 286 286 286 286 286 285 285 285 285 285 285 286 286 286 286 285 285 285 284 283 282 281 280 280 279 278 278 278 277 276 276 276 275 274 274 274 275 274 274 274 274 274 273 273 272 267 265 267 270 272 275 277 277 276 275 275 274 270 267 265 263 263
287 287 286 287 287 286 287 287 286 286 286 286 286 286 286 286 285 285 285 285 285 285 286 286 286 286 285 285 285 284 284 283 282 281 280 279 279 279 278 278 278 277 276 276 273 272 273 273 274 274 273 273 273 273 273 273 272 270 267 266 268 270 271 271 271 275 275 275 276 275 274 274 275 274
287 287 286 286 287 287 287 287 286 286 286 286 286 286 286 286 285 285 285 285 285 285 285 286 286 286 285 285 284 283 283 283 282 282 281 280 279 279 279 278 278 277 276 275 272 271 271 272 273 273 273 273 273 273 273 273 272 269 268 267 268 269 270 270 269 267 266 265 272 276 275 275 275 275
Wind_Speed
11 10 12 11 10 9 8 8 8 9 9 10 9 12 14 12 13 10 6 9 8 5 4 7 6 4 4 6 6 8 8 10 12 9 9 10 10 15 19 19 17 18 18 18 21 21 25 25 25 25 25 24 24 23 23 23 22 21 21 21 21 20 19 18 16 14 14 11 10 8 8 7 4 5
9 10 10 9 9 8 7 8 9 9 9 6 10 12 10 11 11 8 13 10 7 7 5 5 6 6 6 5 6 7 8 9 11 10 12 11 10 15 18 18 19 18 17 18 18 20 23 23 26 26 25 25 25 25 25 25 24 23 22 23 21 20 19 18 17 16 15 13 11 11 9 8 7 6
8 8 10 9 8 7 9 9 10 10 9 8 7 7 9 5 7 11 9 8 6 6 12 8 4 8 7 5 4 4 5 8 12 10 10 11 14 16 14 16 17 17 17 17 17 19 20 23 24 24 25 27 25 25 25 25 26 25 24 24 22 20 19 18 18 18 16 15 13 12 11 10 9 7
6 7 8 8 7 6 6 8 8 9 9 9 8 8 8 6 5 7 9 11 9 9 9 8 4 9 9 6 6 6 5 4 9 8 9 10 10 7 7 13 16 17 18 18 18 17 17 17 19 23 24 23 24 24 24 24 25 24 23 22 22 20 19 20 19 19 18 17 14 14 13 12 10 9
7 7 8 9 9 8 9 7 6 6 7 7 9 9 9 8 6 6 5 7 4 1 1 6 6 4 8 6 7 8 7 6 6 7 7 6 7 8 8 8 13 15 17 18 19 18 16 14 15 16 18 21 22 22 23 24 24 24 21 19 18 18 20 23 21 20 20 17 16 15 14 13 12 10
8 8 9 9 8 8 9 9 8 8 8 8 8 6 9 9 7 7 9 6 6 6 2 4 4 5 7 9 7 10 10 9 7 8 7 5 6 8 7 7 8 14 16 17 18 17 18 16 13 13 13 13 16 16 14 13 17 16 18 18 18 19 20 22 22 23 21 18 18 17 16 14 13 11
7 8 8 8 7 6 7 8 9 8 7 8 9 8 6 9 9 8 6 5 4 8 4 3 6 6 7 10 10 11 9 6 5 6 5 6 5 5 5 7 6 8 11 13 15 17 19 17 15 15 13 12 12 13 15 15 14 16 16 18 16 18 20 19 20 22 20 20 21 19 17 16 14 13
6 7 7 7 6 5 6 6 7 8 8 8 9 9 9 9 8 7 5 5 5 4 7 3 6 5 7 5 1 4 3 4 5 6 3 3 4 4 4 6 6 5 7 8 10 14 16 16 17 15 14 13 13 12 13 15 15 16 16 15 15 16 19 18 19 20 18 19 19 19 19 15 15 15
7 7 7 5 5 5 6 5 5 7 8 8 8 8 8 8 6 5 5 5 5 6 7 4 1 2 1 1 1 3 7 4 3 2 4 5 5 4 3 3 4 5 8 8 9 8 9 11 12 13 13 12 13 13 12 12 13 16 17 15 15 17 17 18 20 20 19 19 21 22 19 16 17 15
6 6 6 5 6 7 8 7 6 7 10 9 8 8 7 6 6 6 5 5 6 6 5 7 4 1 5 2 1 2 5 6 5 3 2 1 3 4 5 5 5 3 3 3 3 5 5 5 6 8 9 10 11 12 12 11 12 13 16 16 17 19 19 19 20 19 21 23 23 23 19 18 17 15
6 6 6 6 6 8 9 8 8 8 7 9 10 9 9 7 7 7 6 6 6 7 6 2 3 5 1 2 5 1 1 2 4 8 5 6 4 3 6 9 4 1 2 4 4 4 4 5 4 4 6 8 10 10 10 9 10 12 14 14 16 19 20 20 20 22 22 23 25 23 20 18 17 16
6 7 6 6 7 8 7 8 8 9 10 7 7 6 6 7 8 8 7 6 6 7 6 5 6 3 4 2 4 3 3 2 1 4 8 11 11 10 5 5 4 1 2 5 4 4 4 5 5 5 6 8 9 8 8 9 9 11 13 13 15 17 19 21 22 23 24 26 27 23 22 20 18 17
6 6 7 7 6 7 9 10 10 11 11 10 9 7 8 8 8 7 6 7 7 5 6 4 3 5 4 4 6 5 5 10 14 7 6 7 3 0 3 4 3 4 4 3 2 4 2 3 4 4 5 7 6 6 8 7 11 12 12 13 16 18 20 22 23 23 26 28 25 23 22 21 19 18
6 6 6 6 10 11 11 11 11 11 12 15 14 12 10 10 9 9 9 8 8 8 8 8 8 7 7 8 9 9 8 4 3 5 6 8 4 1 3 4 3 3 4 4 6 5 3 3 5 3 6 6 4 6 5 6 6 8 10 13 16 19 21 21 23 22 22 22 22 23 22 21 20 19
6 5 5 5 7 9 9 10 13 11 12 9 8 12 14 14 14 11 10 10 9 10 10 7 7 9 9 8 7 8 5 4 6 4 6 5 3 5 5 7 1 0 5 4 3 4 2 4 5 4 5 6 4 4 6 8 10 11 10 12 17 23 27 26 26 25 25 23 22 21 22 22 21 20
6 6 5 4 5 6 8 7 8 9 11 11 12 14 14 13 14 17 16 12 8 7 7 7 9 8 9 8 8 6 5 6 5 4 5 7 7 6 7 4 4 0 3 4 2 3 2 3 4 5 5 3 3 3 5 8 9 10 12 14 18 19 17 19 21 23 24 24 23 23 23 23 21 20
6 5 5 5 5 6 10 8 7 7 7 7 10 11 11 11 12 11 9 14 17 13 9 10 9 10 8 7 9 10 9 5 7 5 5 5 5 5 5 6 2 2 3 3 2 2 2 3 3 5 2 1 2 3 4 7 9 11 12 13 18 22 23 23 24 26 26 24 25 25 24 22 21 20
6 7 7 6 6 4 5 5 7 6 6 6 6 6 5 6 5 6 8 8 4 9 11 10 11 8 5 10 9 9 7 10 9 8 8 6 6 7 7 2 3 2 4 6 4 2 2 3 2 3 1 4 3 3 5 8 9 11 11 13 18 21 20 20 23 26 24 23 23 22 22 21 20 19
7 7 7 7 7 6 6 6 8 7 7 7 6 6 6 6 6 7 5 5 5 5 3 7 6 7 8 6 6 9 9 11 8 9 8 10 6 3 4 4 3 2 3 2 3 4 1 1 2 0 4 4 3 4 6 9 10 11 10 12 16 18 21 21 24 24 22 22 21 21 20 20 19 17
6 6 7 7 7 7 7 7 11 10 8 8 7 7 5 3 3 4 2 4 6 7 7 7 7 7 9 8 8 10 10 6 7 7 7 7 6 6 3 4 2 2 3 3 3 1 1 1 2 1 4 4 4 5 5 8 12 12 11 12 15 19 20 19 21 21 20 19 19 19 18 18 17 16
5 6 6 6 7 7 7 9 12 12 11 7 8 7 7 5 4 5 2 2 4 3 4 5 7 8 9 10 11 13 13 10 9 8 7 5 6 6 5 3 3 5 3 3 4 1 1 1 2 3 3 3 3 5 5 6 9 14 9 11 15 18 18 19 21 20 19 19 19 19 19 18 16 16
5 6 11 9 7 7 7 11 13 14 12 8 8 8 7 6 6 5 3 2 2 4 6 7 8 9 10 10 12 14 15 15 12 9 8 8 7 6 5 6 4 1 2 4 4 3 2 2 2 3 2 1 3 5 4 6 7 10 2 11 13 14 17 19 19 20 20 20 20 20 19 18 16 10
4 4 6 10 10 8 9 14 14 15 12 8 9 8 8 7 8 8 6 6 5 4 3 3 4 3 6 6 6 9 15 16 12 8 7 8 8 7 6 4 4 0 4 7 7 6 2 4 0 3 1 2 1 1 4 4 5 5 5 3 6 13 14 16 17 19 20 20 21 20 20 19 16 6
3 3 4 6 10 11 12 14 15 15 14 10 7 7 8 8 10 5 7 6 6 5 5 4 3 4 3 4 4 5 7 8 7 5 7 9 8 7 6 6 6 4 3 1 10 6 1 1 4 1 2 1 1 2 4 4 4 5 4 3 3 9 11 12 14 20 20 20 20 19 19 19 16 7
6 5 5 4 8 11 12 14 14 15 14 11 9 9 9 10 5 9 6 6 6 5 4 4 4 4 4 4 4 5 6 7 6 3 4 7 7 8 6 6 6 6 2 3 11 4 4 3 4 2 2 4 1 1 1 2 3 3 5 2 3 4 5 6 5 8 15 19 19 19 19 19 19 11
5 6 6 6 9 13 13 15 16 16 15 13 8 10 9 9 12 9 6 6 5 5 5 4 4 4 4 4 4 5 5 6 6 6 5 6 6 4 4 7 8 5 4 5 14 6 7 3 6 6 2 4 0 0 0 1 2 3 4 4 4 1 1 4 3 4 5 6 8 12 14 19 18 18
7 5 6 6 10 13 14 15 16 16 15 11 8 10 10 11 12 9 6 6 6 5 5 6 6 5 5 5 5 5 5 5 5 5 4 2 2 2 5 5 2 1 3 7 9 6 4 4 6 8 6 3 5 1 1 1 1 2 2 3 4 4 3 2 5 5 5 6 5 15 16 17 19 19
7 7 6 7 11 12 11 13 13 13 12 8 10 12 12 13 12 7 7 6 6 6 6 6 5 5 4 4 4 4 4 5 4 3 3 3 3 4 5 5 6 5 3 6 7 5 4 5 6 4 5 8 6 5 4 0 0 2 4 1 2 2 3 0 4 4 4 5 5 7 6 7 8 10
8 9 12 12 13 13 12 12 12 10 10 11 12 13 15 13 7 7 7 7 7 7 7 6 4 4 4 4 3 3 4 5 5 5 5 5 5 6 7 7 6 6 5 2 3 3 3 5 6 5 4 4 5 4 4 3 3 3 4 5 2 2 1 2 3 5 5 5 7 7 8 7 6 5
11 12 12 13 13 12 12 9 7 6 7 11 12 13 12 7 7 7 7 6 7 7 6 6 6 5 4 2 3 4 5 5 5 5 5 5 4 5 5 5 6 6 6 5 3 2 2 3 5 6 4 3 3 4 4 5 2 2 4 5 3 3 1 2 3 4 5 6 6 7 6 5 5 5
8 10 10 9 10 9 11 9 8 8 9 9 7 6 5 5 5 6 6 8 7 6 6 5 5 5 4 5 5 5 5 5 4 5 6 5 5 5 4 5 4 4 4 5 5 4 2 3 4 5 6 4 3 3 5 4 4 3 3 3 6 5 2 4 2 4 4 5 4 4 3 3 2 3
8 8 7 9 7 7 6 6 5 5 4 5 6 5 5 4 4 5 6 5 3 4 4 4 5 5 5 5 5 5 4 5 5 5 5 5 5 4 5 5 4 3 3 3 4 5 5 3 1 2 2 5 5 3 4 3 4 5 4 4 4 1 3 5 5 4 3 3 4 5 4 4 4 4
8 7 7 6 6 7 7 7 6 6 6 5 4 5 5 5 5 5 5 6 6 6 6 6 6 6 5 5 5 5 5 5 5 5 5 4 6 4 3 5 5 6 5 4 3 4 4 4 6 4 4 3 2 6 6 3 3 4 6 5 5 4 2 2 3 3 2 3 5 4 4 3 3 5
8 8 9 8 8 8 8 9 9 9 8 7 6 6 5 5 6 6 6 5 5 5 6 5 6 6 6 6 6 5 6 6 4 5 6 5 5 6 5 5 4 3 4 5 5 4 3 3 4 5 5 4 4 2 3 4 4 4 4 4 5 5 4 2 1 2 4 5 5 6 4 4 5 5
9 8 9 8 7 7 7 8 9 9 9 7 5 7 7 6 7 7 6 6 5 6 6 6 5 6 6 6 6 6 6 8 6 4 3 5 5 5 5 5 5 5 5 6 6 4 4 4 4 4 3 3 2 2 2 1 4 4 3 4 4 5 4 4 3 3 4 4 2 6 5 5 7 5
8 9 9 9 9 8 9 9 7 8 8 7 6 6 8 8 7 8 7 7 6 6 6 6 6 6 6 6 6 6 6 6 6 5 5 5 5 4 3 4 5 5 4 5 7 5 4 4 4 4 4 2 1 2 3 4 5 5 7 5 5 5 4 5 3 3 4 4 5 5 7 8 7 3
10 9 9 9 9 9 9 8 8 8 8 8 8 9 9 9 8 7 6 7 7 6 7 6 6 6 6 6 6 6 6 7 6 6 6 5 5 5 5 4 4 5 5 4 6 6 4 5 4 4 4 4 4 9 6 1 5 6 6 6 4 5 6 5 5 4 5 5 5 7 7 5 4 3
10 9 9 9 9 8 8 7 8 8 8 8 7 8 7 6 6 7 7 8 7 6 7 7 6 7 7 7 7 6 6 6 6 7 6 6 6 6 6 6 5 5 4 4 5 5 4 4 5 4 5 7 7 6 5 2 1 5 10 6 6 5 6 7 5 6 5 4 5 4 3 5 4 2
9 9 9 9 8 8 9 8 8 8 8 8 8 8 7 7 7 7 7 7 7 7 6 6 7 7 7 8 7 8 7 6 6 6 6 6 6 6 6 6 5 4 5 6 4 5 5 5 6 6 6 6 8 6 4 4 5 2 5 12 5 7 6 8 7 5 5 4 3 0 1 2 2 3
9 8 8 8 8 8 8 7 7 7 8 8 7 7 8 8 8 8 7 7 7 6 6 6 7 7 7 8 7 7 7 9 8 7 7 7 7 6 6 5 6 6 5 6 7 5 7 7 7 7 6 4 1 1 2 1 1 1 1 7 12 9 8 7 7 6 3 3 3 4 4 1 3 3
9 9 8 8 7 7 8 8 7 7 7 7 7 7 7 7 7 7 6 6 6 6 6 6 6 7 7 8 8 8 8 7 6 7 7 6 6 6 6 6 5 6 6 7 7 6 9 8 4 5 4 4 2 2 2 0 2 1 1 2 9 10 11 11 8 7 5 4 6 4 4 4 3 3
8 8 7 8 8 8 8 8 8 8 7 7 7 7 7 7 7 8 8 8 8 7 6 6 6 7 7 7 8 8 8 8 7 7 7 7 7 6 7 6 6 6 6 6 7 8 3 4 6 6 5 4 3 4 6 5 4 2 1 1 1 7 10 12 10 8 8 8 6 3 1 1 1 4
8 8 8 8 7 7 7 8 8 8 7 7 8 8 7 7 7 9 7 8 7 7 7 6 6 7 7 7 7 8 7 7 8 7 7 7 7 7 7 6 6 6 6 5 3 3 5 5 5 6 5 5 5 5 7 5 3 3 1 1 3 2 4 9 11 11 12 13 10 6 6 5 4 2
8 8 7 7 8 8 8 8 7 7 7 7 7 7 8 7 7 8 7 7 7 7 7 7 6 7 7 7 7 7 7 7 7 8 8 8 7 7 7 6 6 6 6 4 4 4 4 5 5 6 6 7 6 5 7 3 4 3 4 2 2 3 4 3 3 6 8 10 11 4 4 5 2 2
7 7 7 7 7 7 7 7 7 7 7 7 7 7 7 7 7 6 7 7 7 7 7 7 7 7 7 7 8 8 7 6 7 7 6 6 6 6 6 7 7 7 6 6 6 5 4 4 4 4 4 4 5 6 4 3 2 3 3 3 4 3 4 4 6 5 4 1 4 7 4 5 5 4
Wind_Direction
235 232 229 225 228 225 218 216 212 218 223 220 206 190 186 188 173 166 186 200 179 223 191 180 214 204 204 175 167 171 189 189 179 181 195 203 202 207 211 215 222 231 242 247 237 227 223 222 222 222 221 219 213 210 214 215 213 214 214 213 214 215 213 206 201 203 205 192 207 209 215 222 227 239
231 231 231 228 229 226 220 219 217 220 218 214 203 201 201 195 192 186 179 196 186 174 199 194 174 183 200 175 174 176 191 182 177 191 202 205 205 204 209 213 221 227 235 246 250 247 234 229 229 227 226 225 220 217 216 213 211 215 217 216 214 211 208 201 199 202 197 192 197 206 208 210 213 223
228 228 230 227 227 222 225 224 220 216 209 201 214 215 206 225 220 186 195 185 218 175 186 200 183 167 182 177 168 174 193 186 191 196 205 209 207 204 210 213 220 227 232 242 246 249 253 246 239 236 232 231 227 225 220 217 213 211 213 217 215 208 208 199 197 200 184 194 196 202 205 208 208 211
221 224 227 221 221 221 221 222 214 205 204 199 192 201 219 220 221 206 190 188 182 194 188 183 162 163 162 159 169 184 191 184 182 201 211 217 212 206 214 215 220 224 228 235 243 248 251 260 261 251 246 242 238 234 229 225 224 216 215 215 212 205 201 199 199 197 189 195 192 199 201 207 205 207
223 227 233 234 229 215 209 208 205 205 200 197 200 200 202 200 193 174 178 173 110 118 106 146 167 162 147 163 185 184 188 188 198 202 214 197 205 212 214 218 222 225 229 234 238 243 251 256 262 269 267 259 253 245 237 227 227 222 216 216 208 202 200 199 198 189 191 192 190 192 198 202 202 205
223 224 227 231 224 208 204 196 196 195 193 197 204 205 194 189 190 198 169 163 139 159 131 112 101 132 167 180 187 192 189 202 185 199 204 203 209 212 213 219 225 221 227 234 239 242 247 249 253 259 268 264 254 256 261 247 231 227 219 218 206 196 198 199 196 186 191 189 187 191 196 196 201 203
217 218 219 224 217 210 207 199 195 191 192 189 196 195 191 196 199 195 195 134 137 145 170 145 146 164 182 190 192 200 205 199 185 202 197 197 209 222 209 221 230 230 232 237 240 242 245 247 248 253 259 264 267 255 241 238 237 226 223 218 207 192 189 189 183 182 187 181 187 190 195 196 200 203
213 217 216 216 206 205 215 207 195 191 184 191 202 196 197 200 194 186 166 155 137 144 139 207 178 182 167 219 166 187 165 160 178 199 182 164 201 220 228 226 236 232 242 245 241 242 245 247 249 252 256 261 263 262 250 239 231 226 220 216 209 194 186 184 178 183 185 175 185 186 192 193 198 204
208 216 217 202 188 190 206 211 201 184 185 196 199 203 195 193 183 163 166 138 122 137 164 137 29 105 106 52 58 141 176 193 178 141 184 198 209 222 242 263 252 248 244 247 250 256 260 265 269 268 267 267 268 267 265 254 242 232 223 210 198 190 187 181 179 183 177 168 182 184 180 186 198 204
202 211 213 206 192 188 196 204 205 191 184 184 196 198 191 180 157 160 142 127 133 145 148 153 121 144 166 146 157 214 192 178 200 222 231 235 238 219 250 242 236 228 239 269 285 275 277 292 289 282 277 273 268 267 266 258 249 244 234 218 193 186 185 182 180 174 171 175 182 179 178 184 194 199
202 206 211 207 200 200 199 193 190 190 191 185 190 191 180 165 156 152 155 144 143 142 132 117 151 144 103 144 186 357 136 171 196 204 215 244 223 216 218 245 232 184 268 255 249 267 277 275 275 299 300 284 271 268 271 273 259 248 242 230 201 187 183 178 174 169 171 175 178 179 176 180 185 191
203 203 205 205 201 203 203 196 192 178 182 183 188 186 167 162 158 159 150 144 144 143 152 162 159 152 147 102 60 73 92 123 301 222 200 221 225 225 219 238 249 264 199 260 265 258 254 268 275 275 278 274 271 275 274 267 260 250 241 224 204 185 174 171 171 172 174 176 179 173 172 176 184 186
202 204 204 202 202 205 201 198 190 192 178 173 180 181 171 163 159 149 152 155 150 148 149 124 106 137 146 167 141 144 173 193 206 189 183 227 252 209 233 249 184 206 226 262 259 263 193 247 262 247 261 259 264 271 259 255 250 245 234 218 199 184 177 171 166 165 171 177 171 167 170 175 179 185
201 207 207 204 196 194 191 186 189 196 194 189 184 175 169 165 157 159 160 163 170 163 168 175 161 165 185 181 189 186 205 180 76 125 166 211 204 66 267 297 225 179 184 237 261 247 152 196 254 223 243 257 220 235 236 234 237 243 236 218 194 179 176 169 168 167 167 166 167 169 168 172 177 184
193 206 210 205 191 185 178 178 177 179 180 189 172 172 172 169 164 160 166 175 172 172 181 169 168 184 187 198 191 201 169 177 186 166 175 179 124 191 205 243 344 187 160 185 229 268 194 181 238 242 236 244 235 230 232 230 230 228 226 217 200 188 183 174 171 171 171 166 167 167 168 173 178 185
186 188 187 184 174 180 182 173 172 168 170 168 169 173 176 179 179 173 168 167 173 178 164 164 193 177 197 186 177 186 164 184 164 160 156 182 187 187 204 222 216 268 163 151 177 267 190 198 218 251 246 241 249 240 241 241 236 226 219 206 192 182 175 171 171 170 169 169 170 172 175 177 180 184
182 176 170 167 179 191 180 167 167 164 164 161 164 169 171 175 181 193 196 176 174 174 169 178 185 195 180 169 199 193 186 148 163 149 169 185 194 193 202 213 134 236 191 133 159 254 231 174 213 241 273 5 336 315 292 263 251 238 224 206 186 181 176 172 170 175 176 173 177 177 174 175 178 182
177 176 171 167 176 169 168 170 163 163 156 149 146 150 162 168 179 189 182 192 172 172 177 174 191 201 166 192 192 183 149 153 174 172 197 172 180 195 205 137 142 159 179 166 151 283 235 210 196 250 30 24 354 340 326 303 273 257 235 210 192 184 174 167 170 180 178 177 176 174 173 173 176 182
179 180 177 173 172 172 176 177 167 158 160 155 156 160 174 182 183 179 177 175 168 176 185 180 189 179 194 193 156 161 176 183 177 177 180 179 175 126 83 68 74 126 227 218 141 234 210 247 188 7 19 358 1 360 333 337 318 281 250 220 193 178 175 171 177 182 179 177 175 173 171 173 175 182
179 176 176 172 169 171 177 181 172 166 155 154 155 167 174 184 185 205 216 182 179 181 181 184 188 182 189 169 158 167 170 144 117 96 87 96 114 134 150 189 147 176 216 218 189 223 260 222 183 75 353 10 14 347 357 336 340 312 259 222 187 179 177 172 173 177 177 173 171 172 171 170 176 182
177 172 174 174 177 171 179 175 172 164 154 156 165 167 174 181 182 218 224 155 171 171 150 126 132 145 155 148 152 160 157 150 136 118 114 149 149 150 176 197 156 213 185 226 206 151 275 204 115 55 8 8 18 1 346 336 334 339 260 193 180 176 168 166 173 174 171 171 172 171 170 172 176 183
183 183 175 170 171 176 180 170 172 168 162 166 171 169 165 169 198 217 174 121 110 101 115 130 136 142 150 151 152 156 157 151 150 144 172 174 162 177 181 188 196 115 235 220 167 150 221 89 69 86 327 9 34 348 336 341 339 346 285 173 174 157 158 168 171 173 172 173 172 171 171 173 175 181
181 187 181 176 173 178 174 172 174 172 171 171 173 173 167 182 204 204 164 162 148 141 126 111 102 105 140 146 147 162 161 167 173 181 157 145 166 174 188 167 104 127 254 210 166 179 214 126 124 125 84 12 293 249 318 338 349 345 354 134 161 158 159 167 172 175 175 174 173 172 173 175 173 167
190 189 188 197 186 173 170 175 175 178 176 171 169 156 175 183 213 166 166 180 169 165 174 156 145 134 123 117 121 136 160 175 187 172 147 167 171 176 180 178 179 180 222 207 172 156 134 143 151 103 144 140 269 309 339 341 357 341 349 73 110 146 146 166 177 180 179 177 176 175 176 181 172 164
175 185 196 198 196 179 175 177 180 180 183 170 165 174 182 198 164 139 157 165 156 155 151 146 144 137 129 132 137 150 164 179 191 179 172 183 183 170 172 175 186 226 224 211 175 121 164 149 142 128 37 72 113 89 304 335 324 353 343 343 132 159 156 176 176 182 186 181 180 179 181 187 180 172
187 187 185 191 195 185 178 182 183 184 184 176 165 190 184 132 133 155 150 143 142 142 144 147 151 150 152 147 154 161 171 182 188 192 188 192 200 190 169 174 178 200 214 178 178 153 125 144 165 150 149 122 87 64 7 298 309 344 355 357 352 347 141 156 142 156 173 178 186 186 188 192 190 188
189 189 191 196 187 184 180 181 183 183 181 169 181 171 151 152 140 130 141 145 146 149 155 157 165 168 163 159 164 168 176 186 185 191 186 168 136 81 46 52 56 162 132 157 179 161 128 128 169 166 166 148 122 94 42 208 285 46 14 10 5 8 351 109 164 165 172 174 177 190 191 198 200 200
179 177 184 185 182 182 178 175 174 171 165 170 167 157 153 142 140 137 138 149 153 151 156 163 165 169 167 155 158 175 179 174 169 138 108 94 92 89 75 61 57 48 99 151 169 176 152 135 178 201 156 158 154 163 203 133 93 194 173 81 36 18 1 296 176 161 163 163 163 189 184 197 211 204
178 182 176 173 172 169 163 157 149 147 151 152 156 153 145 141 143 149 153 154 150 159 172 175 163 163 173 170 149 146 126 106 99 104 85 76 77 86 89 76 64 48 41 54 133 160 147 151 165 157 142 170 155 160 136 180 161 193 179 142 207 227 231 295 208 171 173 172 184 189 195 193 194 187
169 166 161 157 153 147 142 136 142 147 149 150 146 144 144 146 148 155 153 154 164 174 167 167 174 167 157 136 108 122 123 130 143 134 129 124 113 124 120 95 55 44 38 26 34 71 102 128 145 153 154 159 163 141 149 133 147 135 159 176 129 51 235 229 219 191 173 185 192 199 202 185 188 165
155 152 150 150 150 144 143 136 134 130 130 127 130 137 144 143 146 153 164 168 170 166 163 162 155 154 143 118 120 132 143 138 140 145 143 137 140 137 127 115 104 70 33 34 35 15 66 119 139 156 156 156 127 139 146 130 111 134 169 167 165 182 178 171 224 207 199 197 198 205 179 155 152 156
144 142 135 131 127 126 117 121 119 123 128 135 140 145 148 143 131 123 110 104 117 132 142 136 133 126 136 147 141 136 143 142 136 139 139 142 142 148 134 120 127 103 74 38 38 28 35 37 114 144 145 161 171 132 108 127 145 154 164 186 208 73 90 186 197 209 202 171 189 212 200 187 187 193
132 134 142 148 147 153 153 152 155 154 151 147 147 148 152 147 148 147 161 169 169 158 151 162 161 154 150 142 141 141 136 137 143 141 125 129 142 146 150 158 148 158 152 123 59 34 44 46 31 48 52 41 84 142 138 130 146 156 170 181 186 195 145 221 210 195 131 181 219 208 215 212 220 212
146 159 161 170 169 167 165 159 160 166 163 165 166 173 168 166 164 166 174 179 167 160 165 163 157 157 153 144 150 151 140 118 136 150 151 148 150 150 164 153 166 169 152 142 126 118 86 53 72 56 51 52 35 67 166 172 164 179 181 167 172 196 184 133 217 158 186 205 202 214 227 233 228 235
167 173 176 180 180 178 177 182 178 162 165 167 161 172 171 179 175 172 174 180 165 164 169 167 162 156 158 152 156 151 148 141 140 141 130 135 153 160 162 169 163 171 162 138 127 135 118 129 123 88 44 24 29 353 14 131 148 173 153 183 172 184 173 157 145 164 196 238 231 226 239 243 240 226
186 187 190 190 193 187 189 192 181 177 174 177 174 169 174 177 178 174 179 171 171 171 171 171 168 164 162 155 158 150 146 147 150 154 150 153 159 153 161 184 164 168 161 158 142 122 140 145 151 149 134 94 115 289 294 196 192 164 179 189 188 179 142 136 152 150 186 217 216 219 227 234 243 226
194 195 194 194 190 187 191 182 180 180 178 178 181 187 183 177 177 177 167 158 173 174 178 173 171 159 157 153 154 154 151 154 156 162 165 165 161 159 165 166 166 162 154 140 147 148 152 154 165 158 164 164 175 226 235 349 250 209 184 187 184 176 150 135 145 184 206 206 219 219 231 240 256 246
195 189 191 190 187 186 183 179 175 177 178 178 179 180 184 177 163 164 158 168 176 172 177 178 168 161 159 156 156 155 157 164 159 165 170 163 162 174 182 180 170 165 141 124 152 159 160 151 169 187 176 197 207 226 250 266 339 239 212 199 176 159 142 136 158 191 210 212 225 231 251 253 248 250
194 192 191 189 185 180 183 183 178 178 175 176 179 180 175 169 163 161 170 174 169 172 173 174 168 165 159 162 161 158 160 159 163 168 164 173 180 183 182 174 159 148 133 123 122 139 145 170 186 193 192 199 206 221 221 204 237 304 229 209 146 143 162 166 178 185 187 198 233 325 312 287 284 237
192 189 190 185 183 179 180 172 176 174 174 180 178 177 173 173 168 167 170 169 169 169 171 174 164 160 164 163 160 159 165 171 174 173 178 183 189 183 178 174 165 153 149 146 129 189 176 197 194 197 203 200 28 36 60 113 101 329 325 222 179 163 170 161 172 170 187 170 140 179 248 335 280 304
187 187 186 180 175 173 173 172 171 168 172 173 176 175 174 169 166 170 167 168 172 176 178 174 169 169 167 165 165 163 168 175 176 178 180 181 177 181 170 158 152 160 162 177 191 190 205 210 155 109 105 104 141 79 72 239 260 316 291 283 205 179 163 170 165 165 154 145 151 172 202 237 265 321
184 184 175 173 174 172 167 166 164 167 171 174 178 178 175 173 176 165 166 172 177 183 186 185 180 173 171 169 170 170 172 174 178 182 181 177 176 173 168 167 164 165 176 187 197 212 179 117 137 136 128 126 137 178 229 222 222 248 272 277 288 199 178 176 169 160 148 145 135 130 87 326 348 294
182 179 175 172 166 166 167 165 164 165 171 172 176 176 174 175 170 172 176 176 177 181 188 188 184 181 177 174 175 176 176 178 179 180 178 179 176 173 174 177 168 169 183 194 160 108 122 141 141 151 159 165 192 198 234 222 188 167 174 174 161 124 161 178 179 174 166 179 178 165 170 159 152 247
180 174 170 166 166 166 167 165 166 168 170 173 174 173 177 176 177 177 176 177 178 183 184 186 184 180 177 172 173 178 182 177 177 180 180 181 180 178 171 166 163 165 175 159 124 131 126 150 166 158 169 191 189 198 226 204 200 171 169 188 135 136 150 119 133 162 171 187 200 188 169 171 174 245
174 171 162 165 165 164 164 165 167 172 172 173 176 178 178 178 178 177 179 179 180 179 181 184 181 177 171 169 173 182 182 173 175 179 171 170 173 170 168 164 165 167 175 158 142 139 151 154 163 171 195 200 191 205 205 211 188 132 159 162 162 163 147 155 150 151 154 318 253 220 220 229 261 270